Location: Little Elm
(33.1626°N, 96.9375°W)
Time: 21:53:18
(UTC+00:00)

Cosmos 1515 Rocket - Pass Details

Date: 07 July 2022
Orbit: 604 x 631 km, 82.5° (Epoch: 13 August)

Event Time Altitude Azimuth Distance (km) Brightness Sun altitude
Rises 09:41:33 0° 337° (NNW) 2,882 7.3 -18.4°
Reaches altitude 10° 09:44:10 10° 322° (NW) 1,968 6.2 -18.0°
Enters shadow 09:47:17 22° 276° (W) 1,338 4.9 -17.5°
